Location: Unspecified
(54.1780°N, 0.0000°E)
Time: 17:37:45
(UTC+00:00)

Explorer 7 - Pass Details

Date: 25 June 2019
Orbit: 485 x 680 km, 50.3° (Epoch: 23 August)

Event Time Altitude Azimuth Distance (km) Brightness Sun altitude
Rises 07:16:04 0° 200° (SSW) 2,714 10.2 29.4°
Reaches altitude 10° 07:19:00 10° 177° (S) 1,867 9.7 29.8°
Maximum altitude 07:21:31 15° 141° (SE) 1,583 9.9 30.2°
Drops below altitude 10° 07:24:08 10° 104° (ESE) 1,948 11.1 30.6°
Sets 07:27:17 0° 83° (E) 2,901 11.6 31.1°
